Domov               UVHVVR             MKGP            O straneh              
ZDRAVSTVENO VARSTVO RASTLIN
  MREŽA AGROMET. POSTAJ
 ► PROGNOSTIČNA OBVESTILA
AGROMETEOROLOŠKI PODATKI -
ARSO
OBVLADOVANJE TVEGANJ ZARADI
NEUGODNIH VREMENSKIH RAZMER
  ► NARAVNE NESREČE
  ► SUŠA/MOČA
  ► NAMAKANJE
  ► ŽLED (gozdarstvo)
KARTOGRAFSKI PRIKAZI
SPLETNE POVEZAVE
PROJEKTI IN PUBLIKACIJE

AGROMETEOROLOŠKA MREŽA: VREMENSKE POSTAJE IN FENOLOŠKA OPAZOVANJA

Pregled podatkov za lokacijo Vnajnarje, meteorološka postaja 27470

Pregled senzorjev na lokaciji

ID Ime Zadnja
vrednost
Datum
zadnje
spremembe
Tip
senzorja
3756 Padavine (mm) 0 mm 16.12.2017 19:00 Generic 0.2 mm
3757 Relativna vlaga 2 m (% RH) 99,93 % RH 16.12.2017 19:00 Generic 0 - 100 %
3758 Temperatura 2 m (°C) -0,93 °C 16.12.2017 19:00 Generic -40 - +60 °C
3759 Omočenost lista (U) 0 U 16.12.2017 19:00 A730WET

Pregled podatkov zadnjih 24 ur

Zap.
št.
Datum in čas Vnajnarje
Omočenost
lista
Padavine Relativna
vlaga
2
m
Temperatura
2
m
0 16.12.2017 19:00 0 0 99,93 -0,93
1 16.12.2017 18:30 0 0 99,93 -0,95
2 16.12.2017 18:00 0 0 99,93 -0,93
3 16.12.2017 17:30 0 0 99,93 -1
4 16.12.2017 17:00 0 0 99,93 -0,83
5 16.12.2017 16:30 0 0 99,93 -0,51
6 16.12.2017 16:00 0 0,2 99,93 -0,24
7 16.12.2017 15:30 0 0,2 99,93 0,15
8 16.12.2017 15:00 0 0,2 99,93 0,1
9 16.12.2017 14:30 0 0,4 99,93 0,15
10 16.12.2017 14:00 0 0,6 99,93 0,22
11 16.12.2017 13:30 0 0,6 99,93 0,44
12 16.12.2017 13:00 0 0,8 99,93 0,37
13 16.12.2017 12:30 3 0,6 99,93 0,24
14 16.12.2017 12:00 8 1,4 99,93 0
15 16.12.2017 11:30 4 2,6 99,93 0,49
16 16.12.2017 11:00 7 0,8 99,93 0,07
17 16.12.2017 10:30 10 0,2 99,93 -0,32
18 16.12.2017 10:00 10 0 99,93 -0,44
19 16.12.2017 09:30 8 0 99,93 -0,56
20 16.12.2017 09:00 3 0 99,93 -0,73
21 16.12.2017 08:30 2 0 99,93 -0,71
22 16.12.2017 08:00 2 0 99,93 -0,71
23 16.12.2017 07:30 2 0 99,93 -0,76
24 16.12.2017 07:00 2 0 99,93 -0,78
25 16.12.2017 06:30 2 0 99,93 -0,78
26 16.12.2017 06:00 2 0 99,93 -0,81
27 16.12.2017 05:30 2 0 99,93 -0,81
28 16.12.2017 05:00 2 0 99,93 -0,88
29 16.12.2017 04:30 2 0 99,93 -0,93
30 16.12.2017 04:00 2 0 99,93 -0,93
31 16.12.2017 03:30 2 0 99,93 -0,68
32 16.12.2017 03:00 2 0 99,93 -0,66
33 16.12.2017 02:30 2 0 99,93 -0,68
34 16.12.2017 02:00 2 0 99,93 -0,56
35 16.12.2017 01:30 3 0 99,93 -0,56
36 16.12.2017 01:00 3 0 99,93 -0,46
37 16.12.2017 00:30 3 0 99,93 -0,44
38 16.12.2017 00:00 3 0 99,93 -0,46
39 15.12.2017 23:30 3 0 99,93 -0,42
40 15.12.2017 23:00 3 0 99,93 -0,34
41 15.12.2017 22:30 4 0 99,93 -0,32
42 15.12.2017 22:00 4 0 99,93 -0,29
43 15.12.2017 21:30 5 0 99,93 -0,29
44 15.12.2017 21:00 8 0 99,93 -0,24
45 15.12.2017 20:30 10 0 99,93 0
46 15.12.2017 20:00 9 0,6 99,93 0,34
© 2011 Ministrstvo za kmetijstvo, gozdarstvo in prehrano. Vse pravice pridržane.